Alpine Airstrip, AK

4:23 AM AKDT on July 24, 2014 (GMT -0800)
Nuiqsut (PAQT) Elev 39 ft | 70.21 °N, 150.99 °W | Change Station

Current weather conditions updated 30 minutes ago

Light Rain
Light Rain
43 °F
Feels Like 40 °F
N
6
Wind Variable Wind from SW

Today is forecast to be Much Cooler than yesterday. Rain mixed with snow.

Today
High -- | Low -- °F
--% Chance of Precip.
Yesterday
High -- | Low -- °F
Precip. -- in
2:42 AM 1:37 AM
Waning Crescent, 5% visible
Pressure 29.63 in
Visibility 10.0 miles
Clouds Mostly Cloudy 2700 ft
Mostly Cloudy 4600 ft
Overcast 7500 ft
Windchill 40 °F
Dew Point 42 °F
Humidity 97%
Rainfall 0.05 in
Snow Depth Not available.
UV 0 out of 12
Pollen Not available.
Air Quality Not available.
Flu Activity Not available.
METAR PAQT 241153Z AUTO 23005KT 10SM -RA BKN027 BKN046 OVC075 06/06 A2963 RMK RAB52 SLP034 P0001 60005 70014 T00610056 10083 20056 53009 TSNO $ VIA AUTODIAL

More Conditions Fewer Conditions

Pressure 29.63 in
Visibility 10.0 miles
Clouds Mostly Cloudy 2700 ft
Mostly Cloudy 4600 ft
Overcast 7500 ft
Windchill 40 °F
Dew Point 42 °F
Humidity 97%
Rainfall 0.05 in
Snow Depth Not available.
UV 0 out of 12
Pollen Not available.
Air Quality Not available.
Flu Activity Not available.
METAR PAQT 241153Z AUTO 23005KT 10SM -RA BKN027 BKN046 OVC075 06/06 A2963 RMK RAB52 SLP034 P0001 60005 70014 T00610056 10083 20056 53009 TSNO $ VIA AUTODIAL

More Conditions Fewer Conditions

10-Day Weather Forecast

Almanac

Astronomy

Jul. 24, 2014 Rise Set
Actual Time 2:42 AM AKDT 1:37 AM AKDT
Civil Twilight Sun does not rise Sun does not rise
Nautical Twilight Sun does not rise Sun does not rise
Astronomical Twilight Sun does not rise Sun does not rise
Moon 1:27 AM AKDT 11:03 PM AKDT
Length of Visible Light 24h 00m
Length of Day
22h 55m
Tomorrow will be 0m 0s shorter.
Waning Crescent, 5% of the Moon is Illuminated
Today
Waning Crescent
Jul 26
New
Aug 3
First Quarter
Aug 10
Full
Aug 17
Last Quarter

Today's Extremes

State Highs State Lows

Community

WunderPhotos

Upload Photos

1,736,988 photos uploaded!

Nearby

Snow Depth

Station Depth Elevation
Imnaviat Creek 0 in 3050 ft
Atigun Pass 0 in 4800 ft
Coldfoot 1 in 1040 ft
Gobblers Knob 0 in 2030 ft
Fort Yukon 3 in 430 ft

Earthquake Activity

City Distance Mag. Time & Date
No recent earthquake activity has been reported nearby.
Minimum magnitude displayed is 2.5.

Coastal Water Temperatures

Place Temperature
No Stations Reporting

Nearby Weather Stations

Station Location Temp. Windchill Dew Point Humidity Wind Precip. Elev Updated Type
HADS JUDY CREEK NEAR NUIQSUT 17W , Barrow, AK 42 °F 42 °F - - North  at  - 0.00 in / hr 42 ft 3:00 AM AKDT MADIS

Show More Stations Show Fewer Stations